This is the latest recevied weather packets stored in our database for station/object KC1TEM-13. If no packets are shown the sender has not sent any weather packets the latest 10 day(s).
| Time | Temp. | Humidity | Pressure | Rain* | Wind** | Luminosity | Snow |
|---|---|---|---|---|---|---|---|
| 1777669271 | 17.22° C | 27% | 1008.9 hPa | 0 mm | - | 332 W/m² | - |
| 1777668967 | 16.67° C | 28% | 1008.9 hPa | 0 mm | - | 351 W/m² | - |
| 1777667754 | 17.22° C | 30% | 1008.8 hPa | 0 mm | - | 424 W/m² | - |
| 1777667452 | 17.22° C | 29% | 1008.7 hPa | 0 mm | - | 438 W/m² | - |
| 1777667149 | 17.22° C | 30% | 1008.7 hPa | 0 mm | - | 458 W/m² | - |
| 1777666845 | 17.22° C | 30% | 1008.7 hPa | 0 mm | - | 480 W/m² | - |
| 1777666542 | 17.22° C | 29% | 1008.7 hPa | 0 mm | - | 532 W/m² | - |
| 1777666239 | 17.78° C | 30% | 1008.9 hPa | 0 mm | - | 338 W/m² | - |
| 1777665936 | 17.78° C | 30% | 1008.8 hPa | 0 mm | - | 132 W/m² | - |
| 1777665026 | 17.22° C | 28% | 1008.8 hPa | 0 mm | - | 582 W/m² | - |
| 1777664722 | 16.67° C | 32% | 1008.9 hPa | 0 mm | - | 605 W/m² | - |
| 1777664116 | 16.67° C | 31% | 1008.9 hPa | 0 mm | - | 289 W/m² | - |
| 1777662905 | 17.22° C | 31% | 1008.9 hPa | 0 mm | - | 767 W/m² | - |
| 1777660474 | 17.22° C | 32% | 1008.9 hPa | 0 mm | - | 260 W/m² | - |
| 1777660170 | 17.22° C | 35% | 1009.1 hPa | 0 mm | - | 790 W/m² | - |
| 1777659867 | 16.67° C | 33% | 1009.1 hPa | 0 mm | - | 787 W/m² | - |
| 1777659564 | 16.67° C | 33% | 1009.1 hPa | 0 mm | - | 797 W/m² | - |
| 1777656533 | 15.56° C | 38% | 1009.4 hPa | 0 mm | - | 862 W/m² | - |
| 1777653500 | 15.56° C | 39% | 1009.5 hPa | 0 mm | - | 896 W/m² | - |
| 1777653198 | 15.56° C | 40% | 1009.5 hPa | 0 mm | - | 896 W/m² | - |
| 1777652895 | 15.56° C | 38% | 1009.6 hPa | 0 mm | - | 896 W/m² | - |
| 1777652591 | 15° C | 37% | 1009.5 hPa | 0 mm | - | 897 W/m² | - |
| 1777652288 | 15.56° C | 37% | 1009.5 hPa | 0 mm | - | 894 W/m² | - |
| 1777651985 | 15° C | 42% | 1009.5 hPa | 0 mm | - | 896 W/m² | - |
| 1777651681 | 15° C | 38% | 1009.5 hPa | 0 mm | - | 894 W/m² | - |
* Rain latest hour (hover to see other rain measurements)
** Current wind speed in m/s (hover to see current wind gust speed)